TimeEDT,TemperatureF,Dew PointF,Humidity,Sea Level PressureIn,VisibilityMPH,Wind Direction,Wind SpeedMPH,Gust SpeedMPH,PrecipitationIn,Events,Conditions,WindDirDegrees,DateUTC
12:53 AM,55.0,45.0,69,30.27,10.0,North,5.8,-,N/A,,Scattered Clouds,350,2013-09-17 04:53:00
1:53 AM,54.0,43.0,66,30.28,10.0,NNW,4.6,-,N/A,,Overcast,330,2013-09-17 05:53:00
2:53 AM,54.0,44.1,69,30.30,10.0,NE,9.2,-,N/A,,Overcast,50,2013-09-17 06:53:00
3:53 AM,50.0,41.0,71,30.32,10.0,NNE,4.6,-,N/A,,Clear,20,2013-09-17 07:53:00
4:53 AM,48.0,37.9,68,30.34,10.0,Calm,Calm,-,N/A,,Clear,0,2013-09-17 08:53:00
5:53 AM,43.0,39.9,89,30.36,10.0,NW,3.5,-,N/A,,Clear,310,2013-09-17 09:53:00
6:53 AM,41.0,39.0,93,30.38,10.0,Calm,Calm,-,N/A,,Clear,0,2013-09-17 10:53:00
7:53 AM,46.9,41.0,80,30.40,10.0,NNW,3.5,-,N/A,,Clear,330,2013-09-17 11:53:00
8:53 AM,53.1,37.0,55,30.41,10.0,NE,6.9,-,N/A,,Clear,40,2013-09-17 12:53:00
9:53 AM,55.0,36.0,49,30.43,10.0,ENE,8.1,-,N/A,,Clear,60,2013-09-17 13:53:00
10:53 AM,57.0,35.1,44,30.43,10.0,NNE,12.7,16.1,N/A,,Clear,30,2013-09-17 14:53:00
11:53 AM,60.1,36.0,41,30.42,10.0,East,6.9,-,N/A,,Clear,80,2013-09-17 15:53:00
12:53 PM,62.1,36.0,38,30.40,10.0,North,6.9,-,N/A,,Clear,360,2013-09-17 16:53:00
1:53 PM,64.0,36.0,35,30.39,10.0,Calm,Calm,-,N/A,,Clear,0,2013-09-17 17:53:00
2:53 PM,64.9,37.9,37,30.37,10.0,Variable,3.5,-,N/A,,Clear,0,2013-09-17 18:53:00
3:53 PM,66.0,39.9,38,30.35,10.0,Calm,Calm,-,N/A,,Clear,0,2013-09-17 19:53:00
4:53 PM,66.0,39.0,37,30.34,10.0,Calm,Calm,-,N/A,,Clear,0,2013-09-17 20:53:00
5:53 PM,66.9,39.0,36,30.34,10.0,Calm,Calm,-,N/A,,Clear,0,2013-09-17 21:53:00
6:53 PM,55.9,46.0,69,30.34,10.0,Calm,Calm,-,N/A,,Clear,0,2013-09-17 22:53:00
7:53 PM,51.1,46.9,86,30.34,10.0,Calm,Calm,-,N/A,,Clear,0,2013-09-17 23:53:00
8:53 PM,48.0,46.0,93,30.35,10.0,South,3.5,-,N/A,,Clear,170,2013-09-18 00:53:00
9:53 PM,46.9,45.0,93,30.35,10.0,Calm,Calm,-,N/A,,Clear,0,2013-09-18 01:53:00
10:53 PM,46.9,45.0,93,30.36,10.0,Calm,Calm,-,N/A,,Clear,0,2013-09-18 02:53:00
11:53 PM,45.0,43.0,93,30.35,10.0,Calm,Calm,-,0.01,,Clear,0,2013-09-18 03:53:00